Current Version              Previous Version:    01  02  03  04  05  06  07  08  09  10  11  12  13  14  15  16  17  18  19  20  21  22  23  24  25  26  27  28  29  30  
   31  32  33  34  35  36  37  38  39  40  41  42  43  44  45  46  47  48  49  50  51  52  53  54  55  56  57  58  59  60  

[Printable]
997
ASUS44 KLUB 310210
RWRTX
WEST TEXAS WEATHER ROUNDUP
NATIONAL WEATHER SERVICE LUBBOCK TX
900 PM CDT WED JUL 30 2014

NOTE: "FAIR" INDICATES FEW OR NO CLOUDS BELOW 12,000 FEET WITH NO
SIGNIFICANT WEATHER AND/OR OBSTRUCTIONS TO VISIBILITY.

TXZ004-006>008-010-012-014-016-OKZ002-310300-
TEXAS PANHANDLE/OKLAHOMA PANHANDLE

CITY           SKY/WX    TMP DP  RH WIND       PRES   REMARKS
AMARILLO       CLOUDY    65  61  87 N18       30.18S
BORGER         CLOUDY    68  61  78 N17       30.18R
CANADIAN       CLOUDY    68  66  93 NE7       30.13R
DALHART        CLOUDY    66  59  78 NE15      30.25R
DUMAS          CLOUDY    63  60  88 NE13      30.22R
GUYMON         CLOUDY    65  60  84 NE12      30.20R
HEREFORD       CLOUDY    69  63  81 N17G25    30.18S
PAMPA          CLOUDY    63  61  93 NE13      30.18R
PERRYTON       CLOUDY    65  61  86 NE17      30.18R
$$

TXZ026-029-035-045-048-310300-
SOUTHERN PANHANDLE/SOUTH PLAINS/ROLLING PLAINS

CITY           SKY/WX    TMP DP  RH WIND       PRES   REMARKS
CHILDRESS      CLEAR     75  66  73 N17       30.04R
SEMINOLE       CLOUDY    86  61  42 NE15G21   30.04R
LUBBOCK        CLOUDY    76  60  57 N21G28    30.06R
PLAINVIEW      PTCLDY    70  62  74 N16G24    30.10S
SNYDER         MOCLDY    83  67  58 E8        29.96R
$$

TXZ052-054-060>062-072-078-127-140-154-169-310300-
PERMIAN BASIN/CONCHO VALLEY/BIG COUNTRY/EDWARDS PLATEAU

CITY           SKY/WX    TMP DP  RH WIND       PRES   REMARKS
ABILENE        CLOUDY    89  62  40 NW12      29.94R
BIG SPRING     CLOUDY    88  55  32 E5        29.97R
BRADY          CLEAR     91  54  27 SE12      29.91S
BROWNWOOD      CLEAR     90  54  29 SE12      29.89R
JUNCTION       CLEAR     92  49  22 S12       29.92R
MIDLAND        CLOUDY    89  59  36 SE15      29.97R
ODESSA           N/A     89  57  33 W15       29.99R
SAN ANGELO     CLEAR     94  51  23 S8        29.87S
SONORA         CLEAR     93  48  21 SE10      29.96R
SWEETWATER     CLOUDY    78  67  68 E9        29.96R
WINK           LGT RAIN  77  67  71 N10       30.00R
$$

TXZ055-058-074-075-080-082-310300-
FAR WEST/SOUTHWEST MOUNTAINS/TRANS PECOS

CITY           SKY/WX    TMP DP  RH WIND       PRES   REMARKS
ALPINE         MOCLDY    86  53  32 NW5       30.12S
DRYDEN           N/A     99  54  22 E17G25    29.87R HX  97
EL PASO        TSTM      90  54  29 SE17      30.01R
FORT STOCKTON  MOCLDY    88  55  32 NW24G37   29.98R
GUADALUPE PASS CLOUDY    79  53  40 SE12      30.19R
MARFA          CLOUDY    79  55  44 N6        30.13F
PECOS          CLOUDY    78  68  70 N16       30.00R
PRESIDIO       FAIR      96  55  25 N10       29.92R
$$

TXZ014-016-019-021>030-083-310300
TEXAS TECH WEST TEXAS MESONET/TEXAS PANHANDLE/NORTHERN SOUTH PLAINS

CITY           SKY/WX    TMP DP  RH WIND       PRES   REMARKS
ABERNATHY 5ENE   N/A     73  60  64 N18       30.10R
AMARILLO 9NNE    N/A     64  62  94 N12       30.18S
AMARILLO 7SSE    N/A     65  61  87 N21       30.19S
AMHERST 1NE      N/A     71  59  67 N15       30.12R
BOOTLEG 11WNW    N/A     65  58  78 NE18      30.23S
CANADIAN 6E      N/A     67  64  90 N10       30.13R
CAPROCK CYN SP   N/A     71  64  78 N6        30.09R
CHILDRESS 2NNE   N/A     73  66  78 N17       30.03R
CLARENDON 2WSW   N/A     69  63  80 N17       30.11R
CLAUDE 12SW      N/A     65  62  91 N16       30.16S
DIMMITT 2NE      N/A     67  60  79 N18       30.16S
FLOYDADA 2NNE    N/A     72  61  68 N17       30.09R
FRIONA 2NE       N/A     67  59  75 NE20      30.19R
GOODLETT 3W      N/A     74  66  76 N16       29.99R
HART 3N          N/A     69  61  76 N17G29    30.15S
HEREFORD 2NW     N/A     66  59  76 N18       30.18F
MCLEAN 1E        N/A     66  62  89 N14       30.12R
MEMPHIS 1NE      N/A     71  65  80 N10       30.06R
MULESHOE 2SSW    N/A     70  59  67 N17       30.15R
OLTON 6S         N/A     70  59  68 N17       30.12R
PALO DURO SP     N/A     67  61  79 N10       30.18S
PAMPA 2E         N/A     63  62  95 N15       30.17R
PLAINVIEW 1S     N/A     71  63  75 N15       30.10F
SILVERTON 7ESE   N/A     69  63  81 N15       30.12R
TULIA 2ENE       N/A     68  62  82 N18       30.14S
TURKEY 2WSW      N/A     73  64  74 N21       30.07R
UMBARGER 3NNE    N/A     66  60  81 N18       30.19F
$$

TXZ033>036-039>041-045>048-310300
TEXAS TECH WEST TEXAS MESONET/SOUTH PLAINS

CITY           SKY/WX    TMP DP  RH WIND       PRES   REMARKS
AIKEN 3WSW       N/A     69  63  80 N21       30.12R
ANDREWS 2NE      N/A     83  58  43 N6        30.00R
ANTON 6SSW       N/A     74  60  63 N20G30    30.10R
BROWNFIELD 2S    N/A     81  61  49 N22       30.05R
DENVR CTY 7WNW   N/A     81  58  44 NE17      30.07R
GAIL 2ESE        N/A     89  63  40 NE18G29   29.95R
LAMESA 2SE       N/A     87  62  42 N14       30.00R
LEVELLAND 4S     N/A     74  60  62 N18       30.10R
LUBBOCK 3WNW     N/A     76  59  55 N20       30.08R
MORTON 1ENE      N/A     72  60  66 N21       30.13R
ODONNELL 1N      N/A     84  63  48 N22       30.01R
PLAINS 3N        N/A     77  61  58 N16       30.09R
RALLS 1SE        N/A     76  61  60 N16       30.07R
REESE CENTER     N/A     74  59  59 N21       30.09R
SEAGRAVES 1SW    N/A     84  60  45 N16G28    30.04R
SEMINOLE 2NNE    N/A     85  60  42 N17       30.03R
SLATON 2NE       N/A     78  60  54 N20       30.05R
SNYDER 3E        N/A     83  66  57 E7        29.96R
SUNDOWN 8SW      N/A     75  61  60 N22       30.10R
TAHOKA 3NNE      N/A     81  62  51 N23       30.03R
WOLFFORTH 6SSW   N/A     78  60  55 N21G32    30.07R
$$

TXZ031-032-036>038-042>044-310300-
TEXAS TECH WEST TEXAS MESONET/ROLLING PLAINS

CITY           SKY/WX    TMP DP  RH WIND       PRES   REMARKS
ASPERMONT 3NE    N/A     82  70  67 NE8       29.94R
FLUVANNA 3WNW    N/A     87  62  43 NE21      29.98R
GRAHAM 5SSW      N/A     84  64  51 N25       29.99R
GUTHRIE 10WSW    N/A     84  65  53 N17       29.97R
HASKELL 1NW      N/A     81  69  67 NE15      29.93R
JAYTON 1SSE      N/A     86  65  49 N12       29.96R
KNOX CITY 3NW    N/A     83  68  60 NE14      29.94R
LK A HENRY 1NW   N/A     87  64  46 NE10      29.97R
NORTHFIELD 1S    N/A     76  66  73 N20       30.03R
ODELL 4ENE       N/A     72  67  85 N15       30.00R
PADUCAH 10SW     N/A     81  64  56 N17       29.99R
POST 1NE         N/A     84  63  49 N20       30.00R
RRING SPRGS 3N   N/A     76  63  63 N20       30.04R
SEYMOUR 3NW      N/A     81  69  66 N12       29.93R
SPUR 1W          N/A     83  63  51 N17G29    29.98R
WEINERT 2NNE     N/A     79  72  79 NE7       29.95R
WHITE RVR 6NE    N/A     80  62  53 N22       30.01R
$$

TXZ052-054-060>062-072-078-127-140-154-169-310300-
TEXAS TECH WEST TEXAS MESONET/PERMIAN BASIN/
CONCHO VALLEY/BIG COUNTRY/EDWARDS PLATEAU

CITY           SKY/WX    TMP DP  RH WIND       PRES   REMARKS
COYANOSA 2N      N/A     83  63  49 N9        29.98R
JUNCTION 1SSW    N/A     91  52  26 S6        29.92R
MERTZON 3NNE     N/A     91  54  27 S6        29.91R
SAN ANGELO 7NW   N/A     93  49  22 S8        29.87S
STRLNG CT 4WSW   N/A     85  63  48 W8        29.95R
ST LAWRNCE 5SW   N/A     79  64  58 S9        29.97R
SWEETWATR 11SW   N/A     86  62  44 E9        29.97R
WALL 1E          N/A     92  50  23 S8        29.88R
$$

TXZ055-058-074-075-080-082-310300-
TEXAS TECH WEST TEXAS MESONET/FAR WEST/SOUTHWEST MOUNTAINS/TRANS PECOS

CITY           SKY/WX    TMP DP  RH WIND       PRES   REMARKS
PRSMN GAP BBNP   N/A     98  51  21 N8        29.90S HX  95
GUADLPE MTN NP   N/A     76  50  39 CALM      30.20R
$$